Weather History for K5H4 - April, 2014

Change the Weather History Date:

Sunday, April 6, 2014

  Actual Average (KRUG) Record (KRUG)
Temperature  
Mean Temperature 38 °F -  
Max Temperature 51 °F 49 °F 77 °F (1991)
Min Temperature 26 °F 26 °F -8 °F (1979)
Degree Days  
Heating Degree Days 26    
Moisture  
Dew Point 34 °F    
Average Humidity 87    
Maximum Humidity 100    
Minimum Humidity 62    
Precipitation  
Precipitation 0.01 in - - ()
Sea Level Pressure  
Sea Level Pressure 29.79 in    
Wind  
Wind Speed 5 mph (SSW)    
Max Wind Speed 13 mph    
Max Gust Speed -    
Visibility 10 miles    
Events Rain    
Averages and records for this station are not official NWS values.
T = Trace of Precipitation, MM = Missing Value Source: NWS Daily Summary

Daily Weather History Graph

Daily Weather History Graph

Search for Another Location

Airport or City:

Trip Planner

Search our weather history database for the weather conditions in past years. The results will help you decide how hot, cold, wet, or windy it might be!

Date:

Astronomy

Apr. 06, 2014 Rise Set
Actual Time 7:08 AM CDT 8:16 PM CDT
Civil Twilight 6:36 AM CDT 8:48 PM CDT
Nautical Twilight 5:58 AM CDT 9:26 PM CDT
Astronomical Twilight 5:17 AM CDT 10:07 PM CDT
Moon 11:56 AM CDT (4/6) 2:28 AM CDT (4/6)
Length of Visible Light 14h 12m
Length of Day
13h 08m
Waxing Crescent, 44% of the Moon is Illuminated
Apr 6
Waxing Crescent
Apr 7
First Quarter
Apr 15
Full
Apr 22
Last Quarter
Apr 29
New

Hourly Weather History & Observations

Time (CDT) Temp. Windchill Dew Point Humidity Pressure Visibility Wind Dir Wind Speed Gust Speed Precip Events Conditions
12:15 AM 32.0 °F - 32.0 °F 100% 29.87 in 10.0 mi Calm Calm - N/A   Scattered Clouds
12:35 AM 30.2 °F 25.4 °F 30.2 °F 100% 29.86 in 10.0 mi NE 4.6 mph - N/A   Partly Cloudy
12:55 AM 28.4 °F 23.3 °F 28.4 °F 100% 29.86 in 10.0 mi SW 4.6 mph - N/A   Clear
1:15 AM 28.4 °F - 28.4 °F 100% 29.85 in 10.0 mi Calm Calm - N/A   Clear
1:35 AM 28.4 °F 23.3 °F 28.4 °F 100% 29.86 in 10.0 mi SW 4.6 mph - N/A   Clear
1:55 AM 28.4 °F 24.6 °F 28.4 °F 100% 29.85 in 7.0 mi SSW 3.5 mph - N/A   Clear
2:15 AM 28.4 °F - 28.4 °F 100% 29.85 in 8.0 mi Calm Calm - N/A   Clear
2:35 AM 26.6 °F - 26.6 °F 100% 29.84 in 8.0 mi Calm Calm - N/A   Clear
2:55 AM 28.4 °F 24.6 °F 28.4 °F 100% 29.83 in 6.0 mi SSE 3.5 mph - N/A   Clear
3:15 AM 28.4 °F 24.6 °F 28.4 °F 100% 29.83 in 7.0 mi South 3.5 mph - N/A   Clear
3:35 AM 28.4 °F - 28.4 °F 100% 29.83 in 5.0 mi Calm Calm - N/A   Clear
3:55 AM 28.4 °F 22.2 °F 28.4 °F 100% 29.83 in 6.0 mi South 5.8 mph - N/A   Clear
4:15 AM 26.6 °F 21.2 °F 26.6 °F 100% 29.82 in 9.0 mi South 4.6 mph - N/A   Clear
4:35 AM 28.4 °F 23.3 °F 28.4 °F 100% 29.82 in 8.0 mi South 4.6 mph - N/A   Mostly Cloudy
4:55 AM 28.4 °F 24.6 °F 28.4 °F 100% 29.82 in 10.0 mi South 3.5 mph - N/A   Mostly Cloudy
5:15 AM 26.6 °F 22.6 °F 26.6 °F 100% 29.81 in 10.0 mi SE 3.5 mph - N/A   Partly Cloudy
5:35 AM 26.6 °F 22.6 °F 26.6 °F 100% 29.81 in 10.0 mi ESE 3.5 mph - N/A   Clear
5:55 AM 26.6 °F 21.2 °F 26.6 °F 100% 29.81 in 10.0 mi SE 4.6 mph - N/A   Clear
6:15 AM 26.6 °F 20.0 °F 26.6 °F 100% 29.80 in 10.0 mi SE 5.8 mph - N/A   Clear
6:35 AM 26.6 °F 18.2 °F 26.6 °F 100% 29.80 in 10.0 mi SE 8.1 mph - N/A   Clear
6:55 AM 26.6 °F 19.1 °F 26.6 °F 100% 29.80 in 10.0 mi SE 6.9 mph - N/A   Clear
7:15 AM 28.4 °F 20.4 °F 28.4 °F 100% 29.80 in 10.0 mi SE 8.1 mph - N/A   Clear
7:35 AM 28.4 °F 20.4 °F 28.4 °F 100% 29.79 in 10.0 mi SE 8.1 mph - N/A   Clear
7:55 AM 30.2 °F 23.4 °F 30.2 °F 100% 29.79 in 10.0 mi SSE 6.9 mph - N/A   Clear
8:15 AM 32.0 °F 24.2 °F 30.2 °F 93% 29.79 in 10.0 mi SSE 9.2 mph - N/A   Partly Cloudy
8:35 AM 32.0 °F 24.2 °F 30.2 °F 93% 29.79 in 10.0 mi SSE 9.2 mph - N/A   Partly Cloudy
8:55 AM 32.0 °F 26.4 °F 30.2 °F 93% 29.80 in 10.0 mi SE 5.8 mph - N/A   Scattered Clouds
9:15 AM 33.8 °F 27.7 °F 32.0 °F 93% 29.79 in 10.0 mi SSE 6.9 mph - N/A   Scattered Clouds
9:35 AM 35.6 °F 28.0 °F 32.0 °F 87% 29.78 in 10.0 mi SSE 10.4 mph - N/A   Clear
9:55 AM 37.4 °F 32.1 °F 32.0 °F 81% 29.79 in 10.0 mi South 6.9 mph - N/A   Mostly Cloudy
10:15 AM 37.4 °F 30.3 °F 32.0 °F 81% 29.78 in 10.0 mi SSE 10.4 mph - N/A   Mostly Cloudy
10:35 AM 37.4 °F 29.8 °F 32.0 °F 81% 29.77 in 10.0 mi SSE 11.5 mph - N/A   Scattered Clouds
10:55 AM 37.4 °F 29.3 °F 32.0 °F 81% 29.75 in 10.0 mi SE 12.7 mph - N/A   Partly Cloudy
11:15 AM 39.2 °F 31.6 °F 32.0 °F 75% 29.76 in 10.0 mi SSE 12.7 mph - N/A   Partly Cloudy
11:35 AM 39.2 °F 34.2 °F 33.8 °F 81% 29.77 in 10.0 mi South 6.9 mph - N/A   Scattered Clouds
11:55 AM 41.0 °F 35.2 °F 35.6 °F 81% 29.77 in 10.0 mi South 9.2 mph - N/A   Partly Cloudy
12:15 PM 42.8 °F 39.3 °F 37.4 °F 81% 29.76 in 10.0 mi SSE 5.8 mph - N/A   Clear
12:35 PM 44.6 °F 41.4 °F 37.4 °F 76% 29.76 in 10.0 mi South 5.8 mph - N/A   Clear
12:55 PM 44.6 °F 40.7 °F 39.2 °F 81% 29.76 in 10.0 mi South 6.9 mph - N/A   Partly Cloudy
1:15 PM 46.4 °F 41.9 °F 39.2 °F 76% 29.75 in 10.0 mi South 9.2 mph - N/A   Partly Cloudy
1:35 PM 46.4 °F 42.9 °F 41.0 °F 81% 29.75 in 10.0 mi SSW 6.9 mph - N/A   Clear
1:55 PM 48.2 °F - 41.0 °F 76% 29.74 in 10.0 mi SW 8.1 mph - N/A   Clear
2:15 PM 48.2 °F - 41.0 °F 76% 29.74 in 10.0 mi SW 8.1 mph - N/A   Clear
2:35 PM 50.0 °F - 41.0 °F 71% 29.74 in 10.0 mi SSW 9.2 mph - N/A   Clear
2:55 PM 50.0 °F - 41.0 °F 71% 29.73 in 10.0 mi SW 11.5 mph - N/A   Clear
3:15 PM 50.0 °F - 41.0 °F 71% 29.73 in 10.0 mi SW 11.5 mph - N/A   Clear
3:35 PM 51.8 °F - 39.2 °F 62% 29.73 in 10.0 mi SW 11.5 mph - N/A   Mostly Cloudy
3:55 PM 51.8 °F - 41.0 °F 67% 29.73 in 10.0 mi SW 11.5 mph - N/A   Partly Cloudy
4:15 PM 50.0 °F - 39.2 °F 66% 29.73 in 10.0 mi SSW 5.8 mph - N/A   Scattered Clouds
4:35 PM 50.0 °F - 37.4 °F 62% 29.73 in 10.0 mi SSW 5.8 mph - N/A   Mostly Cloudy
4:55 PM 50.0 °F - 39.2 °F 66% 29.74 in 10.0 mi NW 5.8 mph - N/A   Partly Cloudy
5:15 PM 50.0 °F - 39.2 °F 66% 29.74 in 10.0 mi North 6.9 mph - N/A   Partly Cloudy
5:35 PM 48.2 °F - 39.2 °F 71% 29.76 in 9.0 mi NW 8.1 mph - N/A   Mostly Cloudy
5:55 PM 44.6 °F 38.8 °F 37.4 °F 76% 29.76 in 8.0 mi NW 11.5 mph - N/A Rain Light Rain
6:15 PM 44.6 °F 40.2 °F 39.2 °F 81% 29.75 in 9.0 mi North 8.1 mph - 0.01 in Rain Light Rain
6:55 PM 44.6 °F - 39.2 °F 81% 29.76 in 10.0 mi Calm Calm - 0.01 in   Partly Cloudy
7:15 PM 44.6 °F 42.2 °F 39.2 °F 81% 29.76 in 10.0 mi NNW 4.6 mph - N/A   Mostly Cloudy
7:35 PM 44.6 °F 42.2 °F 37.4 °F 76% 29.75 in 10.0 mi WNW 4.6 mph - N/A   Scattered Clouds
7:55 PM 42.8 °F 40.1 °F 37.4 °F 81% 29.76 in 10.0 mi NW 4.6 mph - N/A   Mostly Cloudy
8:15 PM 41.0 °F 36.4 °F 37.4 °F 87% 29.77 in 10.0 mi WNW 6.9 mph - N/A   Scattered Clouds
8:35 PM 41.0 °F 35.2 °F 35.6 °F 81% 29.78 in 10.0 mi WNW 9.2 mph - N/A   Partly Cloudy
8:55 PM 37.4 °F 32.8 °F 35.6 °F 93% 29.77 in 10.0 mi West 5.8 mph - N/A   Clear
9:15 PM 41.0 °F 35.2 °F 35.6 °F 81% 29.78 in 10.0 mi WNW 9.2 mph - N/A   Partly Cloudy
9:35 PM 39.2 °F 34.2 °F 35.6 °F 87% 29.79 in 10.0 mi West 6.9 mph - N/A   Partly Cloudy
9:55 PM 39.2 °F 35.0 °F 35.6 °F 87% 29.79 in 10.0 mi West 5.8 mph - N/A   Scattered Clouds
10:15 PM 37.4 °F 32.8 °F 35.6 °F 93% 29.80 in 10.0 mi West 5.8 mph - N/A   Partly Cloudy
10:35 PM 37.4 °F 32.1 °F 35.6 °F 93% 29.80 in 10.0 mi WNW 6.9 mph - N/A   Clear
10:55 PM 37.4 °F 32.1 °F 33.8 °F 87% 29.81 in 10.0 mi WNW 6.9 mph - N/A   Partly Cloudy
11:15 PM 35.6 °F 30.7 °F 33.8 °F 93% 29.81 in 10.0 mi West 5.8 mph - N/A   Clear
11:35 PM 35.6 °F 28.6 °F 33.8 °F 93% 29.82 in 10.0 mi WNW 9.2 mph - N/A   Clear
11:55 PM 33.8 °F 26.4 °F 32.0 °F 93% 29.82 in 10.0 mi WNW 9.2 mph - N/A   Clear